Wind_Speed
2 3 3 3 4 3 3 4 4 4 5 5 6 6 6 6 7 7 7 6 5 5 6 5 6 6 6 5 4 4 3 4 4 4 4 5 5 5 4 4 4 4 4
1 2 2 3 3 3 3 4 4 4 5 5 5 6 6 6 6 6 6 5 5 5 5 5 6 6 5 4 3 4 3 3 4 5 4 5 5 5 4 4 4 4 4
2 2 3 2 2 2 3 3 4 4 5 5 5 5 6 6 6 6 6 5 5 5 5 5 5 6 5 4 3 3 3 4 4 3 4 4 4 4 4 4 4 4 3
2 2 3 3 2 3 3 3 3 4 4 4 4 5 6 6 5 5 6 5 5 5 4 3 4 5 4 4 2 2 3 4 4 3 2 2 4 4 4 4 3 3 3
3 3 3 3 3 3 3 2 3 3 3 3 4 5 5 6 5 5 5 5 5 5 4 4 3 4 3 3 2 2 3 4 3 3 2 3 3 3 3 4 3 2 3
4 3 3 4 3 3 2 2 2 2 3 3 3 4 6 6 6 6 6 6 5 4 4 4 4 4 3 2 2 2 3 2 2 2 2 2 3 3 3 3 3 2 3
4 4 4 4 3 3 3 3 2 2 2 3 3 3 6 6 6 6 6 5 5 5 4 4 4 3 3 2 2 2 2 2 1 1 1 1 2 3 4 4 4 3 2
4 5 4 4 3 3 3 4 4 3 4 4 3 3 5 6 6 6 5 5 5 4 4 3 3 3 3 3 3 3 2 2 1 1 1 1 1 2 3 3 4 4 4
5 5 5 5 5 4 5 5 5 5 5 4 4 4 4 4 5 5 5 4 4 3 2 3 3 3 3 4 4 3 2 1 1 2 2 1 1 2 2 3 3 3 3
6 6 5 6 6 5 6 5 5 6 5 4 4 4 4 4 4 4 4 3 3 3 3 3 3 2 3 4 4 3 3 2 1 1 1 1 1 1 2 2 2 2 3
7 7 6 6 6 6 6 6 6 6 5 5 4 5 5 4 5 4 3 2 3 3 3 3 3 3 3 3 3 4 4 3 2 1 1 1 1 2 1 2 2 3 3
7 6 6 7 7 6 6 5 5 6 6 5 4 5 4 4 4 4 3 2 2 2 3 3 3 3 3 3 4 4 4 3 2 1 1 1 1 2 2 2 3 3 4
7 7 7 7 7 6 6 5 5 6 6 6 5 4 4 3 3 3 3 2 3 3 3 3 4 3 3 3 3 3 3 3 2 2 1 1 2 2 3 3 4 4 4
7 7 7 8 7 6 6 5 5 6 6 6 6 4 4 4 3 3 4 4 3 3 4 3 4 4 3 2 2 3 3 3 3 2 2 2 3 3 3 4 4 4 5
7 8 7 7 7 7 6 6 5 6 6 6 6 5 5 5 5 4 3 3 3 2 2 2 2 3 2 2 3 3 4 3 3 2 2 2 3 3 3 4 5 5 5
8 8 7 7 7 7 7 7 6 7 7 7 7 7 6 6 5 5 4 3 3 3 3 3 3 2 1 1 1 2 2 1 2 1 1 2 3 3 3 4 5 5 6
9 8 8 8 8 8 7 7 7 7 7 7 7 7 7 6 6 5 5 5 4 4 4 4 4 3 2 1 1 1 1 1 2 1 2 3 4 4 4 5 6 6 6
10 8 8 8 8 8 7 7 7 7 7 7 8 8 7 7 7 6 6 6 5 4 4 4 3 2 2 1 1 2 2 2 2 2 3 4 4 4 5 6 6 7 6
10 9 9 8 8 8 8 7 7 7 6 6 7 8 7 7 7 7 6 6 6 6 5 4 3 2 3 2 2 2 3 2 3 3 4 4 5 5 6 6 6 7 7
10 10 10 9 9 9 9 8 7 7 7 7 7 7 7 7 7 7 6 6 6 5 4 4 4 3 3 3 3 3 3 3 4 4 5 6 6 6 6 6 7 6 7
10 10 10 10 9 9 8 8 7 6 6 6 5 6 7 7 7 6 6 7 6 5 5 4 5 4 4 4 4 4 4 4 6 6 6 6 6 7 7 7 7 8 8
10 10 11 11 10 10 9 9 8 6 6 5 5 5 6 6 6 6 6 6 6 6 5 5 5 5 5 5 5 5 5 6 7 6 7 7 7 7 7 8 7 8 8
10 10 10 11 11 10 10 10 10 8 7 6 6 5 5 6 6 7 7 7 7 7 7 7 6 6 6 6 6 6 7 7 7 7 7 8 8 8 9 9 8 8 9
10 10 10 11 11 11 10 9 9 8 8 8 7 7 6 7 7 8 7 7 7 7 7 7 7 7 7 7 7 7 7 8 8 8 9 9 9 9 10 10 10 10 10
10 10 10 10 10 10 10 9 9 9 8 8 8 8 8 7 7 8 8 8 7 7 7 8 8 7 7 7 7 7 8 8 9 9 9 9 10 10 10 10 10 11 11
10 10 9 9 10 10 10 10 9 9 9 9 9 9 8 8 8 8 8 9 8 7 8 8 9 8 8 8 8 8 9 9 10 9 10 10 10 10 10 10 11 12 12
Wind_Direction
86 83 90 71 64 80 111 134 139 143 145 145 148 150 145 144 145 147 148 147 145 152 157 155 155 151 146 137 142 152 157 170 181 196 194 192 185 183 191 195 182 187 186
91 89 83 81 73 88 109 119 137 146 150 148 150 154 150 150 146 148 154 153 149 147 151 151 152 157 154 147 147 155 162 176 185 197 198 195 192 194 202 197 183 192 202
92 85 82 85 77 90 111 109 131 148 153 157 157 157 158 156 153 156 159 162 155 146 149 149 153 159 169 169 165 167 171 174 166 170 176 185 192 192 198 195 188 200 201
90 86 85 81 72 85 101 106 123 140 152 167 170 169 168 166 169 167 166 169 166 157 156 151 161 165 172 179 185 184 181 169 154 167 187 193 200 209 213 197 195 215 218
95 84 89 87 85 93 94 96 127 141 159 170 173 184 188 186 181 177 177 176 173 167 165 165 174 181 181 184 187 176 168 170 175 185 202 203 204 213 220 207 197 222 227
89 82 89 85 89 91 91 99 109 120 149 151 165 186 196 194 189 185 183 179 173 171 170 177 178 189 194 185 205 196 175 176 182 197 202 214 216 223 220 206 209 237 240
87 77 81 77 78 86 87 85 98 91 111 134 144 172 189 184 183 184 184 184 184 188 182 179 184 182 173 179 191 186 186 188 180 191 214 233 221 216 220 229 229 245 254
79 76 73 77 82 87 79 81 79 83 108 117 116 126 164 176 181 182 188 186 193 202 198 187 191 197 195 192 186 179 176 181 230 231 253 254 230 228 231 232 239 244 249
78 75 72 75 81 83 81 82 73 81 99 103 103 114 138 157 163 176 185 183 189 202 192 187 194 193 200 204 201 193 186 198 281 274 265 288 269 250 250 237 249 257 265
81 79 77 81 82 77 75 79 76 78 81 92 104 109 122 130 141 159 175 183 193 201 188 181 193 184 190 185 199 197 194 210 236 258 290 289 256 242 245 240 250 257 261
82 77 74 80 78 73 72 74 71 66 71 80 99 109 117 128 135 135 138 178 199 191 171 160 155 160 171 190 190 198 206 216 217 251 298 282 271 266 275 272 267 267 262
77 72 70 75 76 72 74 72 68 60 65 68 82 98 113 122 128 128 120 114 144 162 156 161 159 156 181 192 198 210 221 228 255 260 291 309 293 291 301 289 282 278 269
68 66 65 64 68 68 71 72 70 65 64 62 69 83 89 94 107 113 108 114 112 132 136 155 159 167 185 187 213 220 222 237 262 264 317 309 291 293 299 296 296 287 287
65 63 61 61 63 66 67 68 69 69 65 63 66 76 80 83 88 97 95 97 104 108 114 132 168 173 180 191 207 220 232 241 253 266 292 295 295 292 307 302 299 289 304
64 62 58 60 62 63 63 65 68 68 67 65 69 73 85 86 77 76 84 93 94 89 80 109 142 164 149 170 191 213 229 256 255 275 300 313 312 312 313 315 306 301 307
64 62 59 61 62 62 66 62 68 67 63 64 68 71 73 73 74 70 72 74 74 69 48 45 60 97 144 151 196 210 223 263 237 277 315 310 310 310 308 313 319 310 309
62 63 61 63 63 60 67 67 63 61 62 64 63 61 60 62 67 66 62 66 66 63 60 55 57 55 58 53 359 283 272 280 273 267 293 302 312 315 313 316 320 321 318
61 61 59 57 57 56 60 64 58 58 61 61 63 64 63 63 63 60 61 59 57 56 56 57 54 49 38 21 348 310 302 303 292 291 303 320 326 318 317 318 320 323 319
57 56 55 54 50 49 47 48 50 58 61 60 70 71 67 62 59 55 52 51 55 54 47 41 34 24 31 20 1 343 325 304 315 309 320 324 324 324 324 320 323 320 319
49 50 50 52 49 47 47 47 49 58 59 59 66 66 66 62 56 52 45 48 49 41 32 28 14 13 10 1 346 337 325 314 312 309 312 311 311 315 318 319 323 322 322
42 44 45 45 41 45 46 41 45 57 57 53 59 60 62 57 51 43 41 41 40 33 27 19 7 358 347 342 336 330 321 307 309 303 302 307 309 312 316 317 314 316 319
39 40 41 41 39 39 39 41 43 48 49 45 49 54 57 47 36 31 28 30 30 22 15 3 354 353 347 336 328 322 323 317 311 302 303 302 307 315 316 319 315 314 316
35 36 38 38 36 35 35 35 36 40 41 39 40 42 42 34 28 24 23 21 21 15 9 359 347 341 340 336 327 321 320 316 313 310 311 310 311 318 320 320 314 313 318
28 29 31 31 30 28 26 27 27 33 34 32 32 31 22 15 15 12 11 8 6 359 353 348 345 338 331 328 326 323 319 318 319 313 313 313 311 312 313 312 308 308 309
19 21 23 23 21 20 17 17 19 20 21 20 18 17 16 9 5 2 358 355 351 346 344 343 340 339 335 328 323 322 320 321 322 316 317 314 312 309 307 310 308 308 311
14 14 13 15 15 12 9 9 11 12 10 9 7 5 4 2 357 350 346 344 339 338 339 337 335 331 328 326 323 318 318 320 319 317 316 317 313 307 305 308 309 309 312
Height
5873 5873 5872 5872 5871 5871 5871 5871 5872 5872 5872 5873 5873 5874 5875 5875 5876 5877 5878 5879 5879 5880 5881 5882 5882 5883 5884 5885 5886 5887 5887 5888 5888 5889 5889 5890 5891 5892 5893 5894 5894 5895 5896
5874 5873 5873 5873 5872 5872 5872 5872 5872 5873 5873 5874 5874 5875 5876 5876 5877 5878 5878 5879 5880 5880 5881 5882 5883 5884 5885 5886 5886 5887 5887 5888 5888 5889 5890 5891 5891 5892 5893 5894 5895 5895 5896
5874 5874 5874 5873 5873 5873 5873 5873 5873 5873 5874 5874 5875 5875 5876 5877 5878 5879 5879 5880 5880 5881 5882 5883 5884 5885 5885 5886 5886 5887 5887 5888 5889 5890 5890 5891 5892 5892 5893 5894 5895 5895 5896
5875 5874 5874 5874 5874 5874 5874 5874 5874 5874 5874 5875 5875 5876 5876 5877 5878 5879 5880 5880 5881 5882 5883 5883 5884 5885 5886 5886 5886 5887 5887 5888 5889 5890 5890 5891 5892 5892 5893 5893 5894 5895 5896
5876 5875 5875 5875 5875 5875 5875 5875 5874 5874 5875 5875 5875 5875 5876 5877 5878 5879 5880 5881 5881 5882 5883 5884 5884 5885 5886 5887 5887 5887 5888 5888 5889 5890 5890 5891 5892 5892 5893 5893 5894 5895 5895
5877 5876 5876 5876 5876 5876 5876 5875 5875 5875 5875 5874 5874 5874 5874 5876 5878 5879 5880 5881 5882 5882 5883 5884 5885 5885 5886 5887 5887 5888 5888 5889 5889 5890 5891 5891 5892 5892 5893 5893 5894 5895 5895
5878 5877 5877 5877 5877 5877 5876 5876 5876 5875 5875 5874 5874 5872 5873 5875 5877 5879 5880 5881 5881 5882 5883 5884 5885 5885 5886 5887 5887 5888 5888 5889 5890 5890 5891 5891 5891 5892 5893 5893 5894 5894 5895
5879 5878 5878 5878 5878 5878 5877 5877 5876 5876 5876 5875 5874 5872 5873 5875 5877 5879 5880 5881 5881 5882 5883 5884 5884 5885 5886 5886 5887 5888 5888 5889 5890 5890 5891 5891 5892 5892 5892 5893 5894 5894 5895
5880 5880 5879 5879 5879 5878 5878 5878 5877 5877 5877 5877 5876 5875 5875 5877 5878 5879 5880 5881 5881 5882 5882 5883 5884 5884 5884 5886 5887 5888 5889 5889 5890 5891 5891 5891 5891 5892 5892 5893 5894 5894 5894
5881 5881 5881 5880 5880 5879 5879 5879 5879 5878 5878 5878 5878 5877 5878 5878 5879 5880 5880 5881 5881 5881 5882 5882 5883 5883 5884 5885 5887 5888 5889 5889 5890 5890 5890 5891 5891 5891 5892 5892 5893 5893 5894
5883 5883 5882 5881 5881 5881 5880 5880 5880 5879 5879 5879 5879 5879 5879 5880 5880 5880 5880 5881 5881 5881 5882 5882 5883 5883 5884 5885 5886 5888 5889 5890 5890 5890 5890 5890 5891 5891 5891 5892 5892 5893 5893
5885 5884 5884 5883 5883 5882 5882 5882 5882 5881 5881 5880 5880 5880 5880 5880 5880 5881 5881 5881 5881 5881 5882 5882 5883 5884 5885 5885 5886 5887 5888 5889 5889 5890 5890 5890 5891 5891 5891 5891 5892 5892 5892
5886 5886 5885 5885 5885 5884 5883 5883 5883 5883 5882 5882 5882 5882 5882 5881 5881 5881 5881 5881 5881 5881 5882 5883 5883 5884 5885 5886 5886 5887 5888 5889 5889 5890 5890 5890 5890 5891 5891 5891 5891 5891 5891
5888 5887 5887 5886 5886 5886 5885 5885 5884 5884 5884 5884 5883 5883 5883 5883 5883 5882 5882 5882 5882 5882 5883 5883 5884 5885 5886 5886 5887 5887 5887 5888 5889 5889 5889 5890 5890 5890 5890 5890 5890 5891 5891
5890 5889 5889 5888 5888 5887 5887 5886 5886 5886 5885 5885 5884 5884 5884 5884 5884 5883 5883 5883 5883 5883 5883 5884 5884 5885 5886 5886 5887 5887 5888 5888 5888 5889 5889 5890 5890 5890 5890 5890 5890 5890 5890
5891 5891 5890 5890 5890 5889 5888 5888 5887 5887 5887 5886 5886 5885 5885 5885 5885 5884 5884 5884 5884 5884 5884 5884 5885 5885 5886 5886 5887 5887 5887 5888 5888 5889 5889 5889 5890 5889 5889 5889 5889 5889 5888
5894 5893 5893 5892 5891 5891 5890 5890 5889 5889 5888 5887 5887 5886 5886 5886 5886 5886 5885 5885 5885 5885 5885 5885 5885 5886 5886 5887 5887 5888 5888 5888 5888 5889 5889 5889 5889 5889 5889 5889 5888 5888 5887
5896 5895 5895 5894 5894 5893 5892 5891 5891 5890 5889 5889 5888 5888 5888 5887 5887 5887 5887 5886 5886 5886 5886 5886 5887 5887 5887 5887 5888 5888 5888 5888 5889 5889 5889 5889 5889 5889 5889 5888 5888 5887 5886
5898 5898 5897 5896 5896 5895 5894 5893 5892 5892 5891 5890 5890 5890 5889 5889 5888 5888 5888 5888 5888 5888 5888 5887 5887 5887 5888 5888 5888 5888 5888 5888 5888 5888 5888 5888 5888 5888 5888 5887 5886 5886 5885
5901 5900 5899 5898 5897 5896 5895 5894 5893 5893 5892 5892 5891 5891 5891 5890 5890 5890 5890 5889 5889 5889 5889 5888 5888 5888 5888 5888 5888 5888 5888 5888 5888 5888 5888 5888 5887 5887 5887 5886 5885 5884 5884
5903 5902 5901 5900 5899 5898 5897 5895 5894 5894 5894 5893 5893 5892 5892 5892 5891 5891 5891 5890 5890 5890 5889 5889 5889 5888 5888 5888 5887 5887 5886 5887 5887 5887 5887 5887 5886 5886 5885 5885 5884 5883 5882
5905 5904 5903 5902 5901 5900 5898 5897 5896 5896 5895 5895 5894 5894 5894 5893 5893 5892 5892 5891 5891 5891 5890 5889 5889 5888 5888 5887 5887 5887 5886 5887 5886 5885 5885 5885 5885 5884 5884 5883 5883 5882 5881
5907 5906 5905 5904 5903 5901 5900 5899 5899 5898 5897 5897 5896 5895 5895 5894 5894 5893 5892 5892 5891 5891 5890 5889 5888 5888 5887 5886 5886 5886 5886 5885 5885 5884 5884 5883 5883 5882 5882 5881 5881 5880 5879
5909 5908 5907 5906 5905 5903 5902 5901 5901 5900 5899 5898 5897 5897 5896 5895 5895 5894 5893 5892 5891 5890 5890 5889 5888 5887 5886 5886 5885 5884 5884 5884 5884 5883 5883 5882 5881 5880 5880 5879 5879 5878 5877
5911 5910 5909 5908 5906 5905 5904 5903 5902 5901 5900 5899 5898 5898 5897 5896 5895 5894 5893 5892 5891 5890 5889 5888 5887 5886 5885 5885 5884 5883 5883 5882 5882 5881 5881 5880 5879 5879 5878 5877 5875 5875 5874
5912 5911 5910 5909 5908 5906 5905 5904 5903 5902 5901 5900 5899 5898 5897 5896 5895 5894 5893 5891 5890 5889 5888 5887 5886 5885 5884 5883 5882 5882 5881 5880 5879 5879 5879 5878 5877 5876 5876 5875 5874 5872 5871